Time,TemperatureF,DewpointF,PressureIn,WindDirection,WindDirectionDegrees,WindSpeedMPH,WindSpeedGustMPH,Humidity,HourlyPrecipIn,Conditions,Clouds,dailyrainin,SolarRadiationWatts/m^2,SoftwareType,DateUTC
2013-01-26 00:00:00,52.1,47.7,30.15,West,272,0.0,0.0,85,0.00,,,0.00,0,Wunderground v.1.15,2013-01-26 06:00:00,
2013-01-26 00:10:00,52.2,47.8,30.14,WNW,299,1.0,1.0,85,0.00,,,0.00,0,Wunderground v.1.15,2013-01-26 06:10:00,
2013-01-26 00:15:00,52.2,47.8,30.14,WNW,299,1.0,1.0,85,0.00,,,0.00,0,Wunderground v.1.15,2013-01-26 06:15:00,
2013-01-26 00:20:00,52.3,47.9,30.14,NW,307,1.0,1.0,85,0.00,,,0.00,0,Wunderground v.1.15,2013-01-26 06:20:00,
2013-01-26 00:30:00,52.3,47.9,30.14,WNW,293,1.0,4.0,85,0.00,,,0.00,0,Wunderground v.1.15,2013-01-26 06:30:00,
2013-01-26 00:35:00,52.2,47.5,30.14,West,274,1.0,4.0,84,0.00,,,0.00,0,Wunderground v.1.15,2013-01-26 06:35:00,
2013-01-26 00:40:00,52.3,47.6,30.14,NW,315,1.0,1.0,84,0.00,,,0.00,0,Wunderground v.1.15,2013-01-26 06:40:00,
2013-01-26 00:50:00,52.3,47.3,30.14,WNW,284,1.0,1.0,83,0.00,,,0.00,0,Wunderground v.1.15,2013-01-26 06:50:00,
2013-01-26 00:55:00,52.3,47.6,30.14,WNW,283,1.0,1.0,84,0.00,,,0.00,0,Wunderground v.1.15,2013-01-26 06:55:00,
2013-01-26 01:00:00,52.4,47.7,30.15,WNW,284,1.0,3.0,84,0.00,,,0.00,0,Wunderground v.1.15,2013-01-26 07:00:00,
2013-01-26 01:05:00,52.4,47.4,30.15,West,281,1.0,3.0,83,0.00,,,0.00,0,Wunderground v.1.15,2013-01-26 07:05:00,
2013-01-26 01:15:00,52.4,47.7,30.15,NW,304,0.0,1.0,84,0.00,,,0.00,0,Wunderground v.1.15,2013-01-26 07:15:00,
2013-01-26 01:20:00,52.4,47.7,30.14,WNW,284,1.0,1.0,84,0.00,,,0.00,0,Wunderground v.1.15,2013-01-26 07:20:00,
2013-01-26 01:25:00,52.5,47.8,30.14,WNW,288,0.0,1.0,84,0.00,,,0.00,0,Wunderground v.1.15,2013-01-26 07:25:00,
2013-01-26 01:30:00,52.4,47.7,30.14,NW,307,0.0,0.0,84,0.00,,,0.00,0,Wunderground v.1.15,2013-01-26 07:30:00,
2013-01-26 01:35:00,52.4,48.0,30.14,WNW,288,0.0,3.0,85,0.00,,,0.00,0,Wunderground v.1.15,2013-01-26 07:35:00,
2013-01-26 01:45:00,52.3,47.9,30.14,NW,306,1.0,1.0,85,0.00,,,0.00,0,Wunderground v.1.15,2013-01-26 07:45:00,
2013-01-26 01:50:00,52.3,47.9,30.14,WNW,296,1.0,1.0,85,0.00,,,0.00,0,Wunderground v.1.15,2013-01-26 07:50:00,
2013-01-26 02:00:00,52.2,47.8,30.13,WNW,296,0.0,0.0,85,0.00,,,0.00,0,Wunderground v.1.15,2013-01-26 08:00:00,
2013-01-26 02:05:00,52.2,47.8,30.13,WNW,285,0.0,2.0,85,0.00,,,0.00,0,Wunderground v.1.15,2013-01-26 08:05:00,
2013-01-26 02:15:00,52.0,47.9,30.13,WNW,298,2.0,3.0,86,0.00,,,0.00,0,Wunderground v.1.15,2013-01-26 08:15:00,
2013-01-26 02:20:00,51.9,47.8,30.12,West,278,1.0,1.0,86,0.00,,,0.00,0,Wunderground v.1.15,2013-01-26 08:20:00,
2013-01-26 02:25:00,51.9,47.8,30.12,NW,310,1.0,1.0,86,0.00,,,0.00,0,Wunderground v.1.15,2013-01-26 08:25:00,
2013-01-26 02:30:00,51.9,48.2,30.13,NW,316,1.0,3.0,87,0.00,,,0.00,0,Wunderground v.1.15,2013-01-26 08:30:00,
2013-01-26 02:35:00,51.8,48.1,30.12,NW,312,0.0,3.0,87,0.00,,,0.00,0,Wunderground v.1.15,2013-01-26 08:35:00,
2013-01-26 02:40:00,51.8,47.7,30.12,WNW,300,0.0,1.0,86,0.00,,,0.00,0,Wunderground v.1.15,2013-01-26 08:40:00,
2013-01-26 02:45:00,51.7,47.6,30.13,WNW,296,1.0,2.0,86,0.00,,,0.00,0,Wunderground v.1.15,2013-01-26 08:45:00,
2013-01-26 02:55:00,51.7,48.0,30.13,NW,310,1.0,1.0,87,0.00,,,0.00,0,Wunderground v.1.15,2013-01-26 08:55:00,
2013-01-26 03:05:00,51.5,47.8,30.13,WNW,289,1.0,3.0,87,0.00,,,0.00,0,Wunderground v.1.15,2013-01-26 09:05:00,
2013-01-26 03:15:00,51.5,47.8,30.13,NW,326,1.0,2.0,87,0.00,,,0.00,0,Wunderground v.1.15,2013-01-26 09:15:00,
2013-01-26 03:20:00,51.4,47.7,30.13,WNW,294,1.0,1.0,87,0.00,,,0.00,0,Wunderground v.1.15,2013-01-26 09:20:00,
2013-01-26 03:25:00,51.2,47.8,30.12,WNW,303,1.0,1.0,88,0.00,,,0.00,0,Wunderground v.1.15,2013-01-26 09:25:00,
2013-01-26 03:30:00,51.0,47.6,30.12,West,273,1.0,1.0,88,0.00,,,0.00,0,Wunderground v.1.15,2013-01-26 09:30:00,
2013-01-26 03:40:00,50.7,47.6,30.12,WNW,287,1.0,1.0,89,0.00,,,0.00,0,Wunderground v.1.15,2013-01-26 09:40:00,
2013-01-26 03:50:00,50.6,47.8,30.12,WNW,290,0.0,0.0,90,0.00,,,0.00,0,Wunderground v.1.15,2013-01-26 09:50:00,
2013-01-26 04:00:00,50.6,47.8,30.12,NW,308,0.0,0.0,90,0.00,,,0.00,0,Wunderground v.1.15,2013-01-26 10:00:00,
2013-01-26 04:05:00,50.5,47.7,30.12,WNW,286,0.0,1.0,90,0.00,,,0.00,0,Wunderground v.1.15,2013-01-26 10:05:00,
2013-01-26 04:10:00,50.4,47.6,30.11,WNW,286,0.0,0.0,90,0.00,,,0.00,0,Wunderground v.1.15,2013-01-26 10:10:00,
2013-01-26 04:15:00,50.3,47.8,30.11,WNW,288,0.0,1.0,91,0.00,,,0.00,0,Wunderground v.1.15,2013-01-26 10:15:00,
2013-01-26 04:20:00,50.2,47.7,30.11,WNW,285,1.0,1.0,91,0.00,,,0.00,0,Wunderground v.1.15,2013-01-26 10:20:00,
2013-01-26 04:25:00,50.1,47.9,30.12,WNW,295,1.0,2.0,92,0.00,,,0.00,0,Wunderground v.1.15,2013-01-26 10:25:00,
2013-01-26 04:30:00,49.9,47.7,30.12,WNW,300,1.0,2.0,92,0.00,,,0.00,0,Wunderground v.1.15,2013-01-26 10:30:00,
2013-01-26 04:35:00,49.8,47.9,30.12,WNW,286,1.0,2.0,93,0.00,,,0.00,0,Wunderground v.1.15,2013-01-26 10:35:00,
2013-01-26 04:45:00,49.6,47.7,30.13,WNW,285,1.0,1.0,93,0.00,,,0.00,0,Wunderground v.1.15,2013-01-26 10:45:00,
2013-01-26 04:50:00,49.5,47.6,30.12,WNW,296,1.0,1.0,93,0.00,,,0.00,0,Wunderground v.1.15,2013-01-26 10:50:00,
2013-01-26 05:00:00,49.4,47.7,30.12,NW,311,1.0,1.0,94,0.00,,,0.00,0,Wunderground v.1.15,2013-01-26 11:00:00,
2013-01-26 05:05:00,49.3,47.6,30.12,WNW,303,1.0,1.0,94,0.00,,,0.00,0,Wunderground v.1.15,2013-01-26 11:05:00,
2013-01-26 05:10:00,49.3,47.6,30.12,NW,304,0.0,0.0,94,0.00,,,0.00,0,Wunderground v.1.15,2013-01-26 11:10:00,
2013-01-26 05:20:00,49.2,47.8,30.13,WNW,284,0.0,0.0,95,0.00,,,0.00,0,Wunderground v.1.15,2013-01-26 11:20:00,
2013-01-26 05:30:00,48.9,47.5,30.12,WNW,295,1.0,1.0,95,0.00,,,0.00,0,Wunderground v.1.15,2013-01-26 11:30:00,
2013-01-26 05:35:00,48.8,47.4,30.12,WNW,294,1.0,1.0,95,0.00,,,0.00,0,Wunderground v.1.15,2013-01-26 11:35:00,
2013-01-26 05:40:00,48.8,47.4,30.12,NW,306,1.0,1.0,95,0.00,,,0.00,0,Wunderground v.1.15,2013-01-26 11:40:00,
2013-01-26 05:45:00,48.7,47.3,30.13,WNW,294,1.0,1.0,95,0.00,,,0.00,0,Wunderground v.1.15,2013-01-26 11:45:00,
2013-01-26 05:50:00,48.8,47.4,30.12,WNW,294,0.0,0.0,95,0.00,,,0.00,0,Wunderground v.1.15,2013-01-26 11:50:00,
2013-01-26 05:55:00,48.7,47.3,30.13,NW,306,0.0,0.0,95,0.00,,,0.00,0,Wunderground v.1.15,2013-01-26 11:55:00,
2013-01-26 06:00:00,48.7,47.3,30.13,WNW,296,1.0,1.0,95,0.00,,,0.00,0,Wunderground v.1.15,2013-01-26 12:00:00,
2013-01-26 06:10:00,48.8,47.4,30.13,WNW,296,0.0,0.0,95,0.00,,,0.00,0,Wunderground v.1.15,2013-01-26 12:10:00,
2013-01-26 06:20:00,48.8,47.7,30.13,WNW,296,0.0,0.0,96,0.00,,,0.01,0,Wunderground v.1.15,2013-01-26 12:20:00,
2013-01-26 06:25:00,48.9,47.8,30.14,WNW,296,0.0,0.0,96,0.00,,,0.01,0,Wunderground v.1.15,2013-01-26 12:25:00,
2013-01-26 06:35:00,48.9,47.8,30.14,WNW,296,0.0,1.0,96,0.00,,,0.01,0,Wunderground v.1.15,2013-01-26 12:35:00,
2013-01-26 06:40:00,48.9,47.8,30.14,WNW,296,0.0,1.0,96,0.00,,,0.01,0,Wunderground v.1.15,2013-01-26 12:40:00,
2013-01-26 06:50:00,48.9,47.8,30.14,WNW,296,0.0,0.0,96,0.00,,,0.01,0,Wunderground v.1.15,2013-01-26 12:50:00,
2013-01-26 06:55:00,48.9,47.8,30.14,NW,304,0.0,0.0,96,0.00,,,0.01,0,Wunderground v.1.15,2013-01-26 12:55:00,
2013-01-26 07:00:00,48.9,47.8,30.14,WNW,297,0.0,0.0,96,0.00,,,0.01,0,Wunderground v.1.15,2013-01-26 13:00:00,
2013-01-26 07:05:00,49.0,47.9,30.14,WNW,297,0.0,0.0,96,0.00,,,0.01,0,Wunderground v.1.15,2013-01-26 13:05:00,
2013-01-26 07:15:00,49.0,47.9,30.14,WNW,298,0.0,1.0,96,0.00,,,0.01,0,Wunderground v.1.15,2013-01-26 13:15:00,
2013-01-26 07:20:00,49.0,47.9,30.15,WNW,298,0.0,0.0,96,0.00,,,0.01,0,Wunderground v.1.15,2013-01-26 13:20:00,
2013-01-26 07:25:00,49.1,48.0,30.15,WNW,298,0.0,0.0,96,0.00,,,0.01,0,Wunderground v.1.15,2013-01-26 13:25:00,
2013-01-26 07:30:00,49.0,47.9,30.15,WNW,296,0.0,0.0,96,0.00,,,0.01,0,Wunderground v.1.15,2013-01-26 13:30:00,
2013-01-26 07:35:00,49.0,47.9,30.15,WNW,296,0.0,0.0,96,0.00,,,0.01,5,Wunderground v.1.15,2013-01-26 13:35:00,
2013-01-26 07:40:00,49.0,47.9,30.16,WNW,294,0.0,0.0,96,0.00,,,0.01,5,Wunderground v.1.15,2013-01-26 13:40:00,
2013-01-26 07:45:00,49.1,48.0,30.16,WNW,294,0.0,0.0,96,0.00,,,0.01,7,Wunderground v.1.15,2013-01-26 13:45:00,
2013-01-26 07:50:00,49.1,48.0,30.16,WNW,294,0.0,0.0,96,0.00,,,0.01,7,Wunderground v.1.15,2013-01-26 13:50:00,
2013-01-26 08:00:00,49.1,48.0,30.16,WNW,294,0.0,0.0,96,0.00,,,0.01,7,Wunderground v.1.15,2013-01-26 14:00:00,
2013-01-26 08:05:00,49.1,48.0,30.16,WNW,294,0.0,0.0,96,0.00,,,0.01,5,Wunderground v.1.15,2013-01-26 14:05:00,
2013-01-26 08:15:00,49.2,48.1,30.16,WNW,294,0.0,0.0,96,0.00,,,0.01,9,Wunderground v.1.15,2013-01-26 14:15:00,
2013-01-26 08:20:00,49.3,48.2,30.15,WNW,294,0.0,0.0,96,0.00,,,0.01,11,Wunderground v.1.15,2013-01-26 14:20:00,
2013-01-26 08:30:00,49.3,48.2,30.16,WNW,294,0.0,0.0,96,0.00,,,0.01,32,Wunderground v.1.15,2013-01-26 14:30:00,
2013-01-26 08:35:00,49.4,48.3,30.16,WNW,294,0.0,0.0,96,0.00,,,0.01,21,Wunderground v.1.15,2013-01-26 14:35:00,
2013-01-26 08:45:00,49.6,48.8,30.16,WNW,294,0.0,0.0,97,0.00,,,0.01,53,Wunderground v.1.15,2013-01-26 14:45:00,
2013-01-26 08:50:00,49.7,48.6,30.16,WNW,294,0.0,0.0,96,0.00,,,0.01,47,Wunderground v.1.15,2013-01-26 14:50:00,
2013-01-26 09:00:00,49.8,48.7,30.16,WNW,294,0.0,0.0,96,0.00,,,0.01,54,Wunderground v.1.15,2013-01-26 15:00:00,
2013-01-26 09:05:00,49.9,48.8,30.17,WNW,294,0.0,0.0,96,0.00,,,0.01,53,Wunderground v.1.15,2013-01-26 15:05:00,
2013-01-26 09:10:00,50.1,49.0,30.17,WNW,294,0.0,0.0,96,0.00,,,0.01,49,Wunderground v.1.15,2013-01-26 15:10:00,
2013-01-26 09:20:00,50.3,49.2,30.17,WNW,294,0.0,0.0,96,0.00,,,0.01,47,Wunderground v.1.15,2013-01-26 15:20:00,
2013-01-26 09:25:00,50.4,49.3,30.17,NW,305,0.0,0.0,96,0.00,,,0.01,51,Wunderground v.1.15,2013-01-26 15:25:00,
2013-01-26 09:35:00,50.6,49.5,30.18,NW,304,0.0,0.0,96,0.00,,,0.01,74,Wunderground v.1.15,2013-01-26 15:35:00,
2013-01-26 09:40:00,50.7,49.6,30.17,NW,304,0.0,1.0,96,0.00,,,0.01,84,Wunderground v.1.15,2013-01-26 15:40:00,
2013-01-26 09:50:00,51.0,49.9,30.17,NW,304,0.0,0.0,96,0.00,,,0.01,100,Wunderground v.1.15,2013-01-26 15:50:00,
2013-01-26 09:55:00,51.2,50.1,30.18,NW,304,0.0,0.0,96,0.00,,,0.01,81,Wunderground v.1.15,2013-01-26 15:55:00,
2013-01-26 10:05:00,51.4,50.0,30.18,NNW,327,0.0,0.0,95,0.00,,,0.01,104,Wunderground v.1.15,2013-01-26 16:05:00,
2013-01-26 10:10:00,51.6,50.2,30.18,NNW,327,0.0,0.0,95,0.00,,,0.01,100,Wunderground v.1.15,2013-01-26 16:10:00,
2013-01-26 10:20:00,51.8,50.1,30.18,NNW,327,0.0,1.0,94,0.00,,,0.01,137,Wunderground v.1.15,2013-01-26 16:20:00,
2013-01-26 10:25:00,51.9,50.2,30.18,North,360,0.0,1.0,94,0.00,,,0.01,137,Wunderground v.1.15,2013-01-26 16:25:00,
2013-01-26 10:30:00,52.2,50.5,30.18,NW,304,0.0,0.0,94,0.00,,,0.01,139,Wunderground v.1.15,2013-01-26 16:30:00,
2013-01-26 10:35:00,52.3,50.6,30.18,NW,325,0.0,1.0,94,0.00,,,0.01,134,Wunderground v.1.15,2013-01-26 16:35:00,
2013-01-26 10:40:00,52.5,50.5,30.17,NNW,341,0.0,0.0,93,0.00,,,0.01,139,Wunderground v.1.15,2013-01-26 16:40:00,
2013-01-26 10:50:00,52.9,50.9,30.17,WNW,301,0.0,1.0,93,0.00,,,0.01,165,Wunderground v.1.15,2013-01-26 16:50:00,
2013-01-26 11:00:00,53.3,51.3,30.17,WNW,290,0.0,0.0,93,0.00,,,0.01,197,Wunderground v.1.15,2013-01-26 17:00:00,
2013-01-26 11:05:00,53.5,51.2,30.17,NW,311,0.0,0.0,92,0.00,,,0.01,192,Wunderground v.1.15,2013-01-26 17:05:00,
2013-01-26 11:10:00,53.8,51.2,30.17,NNW,328,0.0,1.0,91,0.00,,,0.01,160,Wunderground v.1.15,2013-01-26 17:10:00,
2013-01-26 11:15:00,53.9,51.3,30.17,NNW,348,0.0,3.0,91,0.00,,,0.01,169,Wunderground v.1.15,2013-01-26 17:15:00,
2013-01-26 11:20:00,54.0,51.4,30.17,North,360,0.0,0.0,91,0.00,,,0.01,151,Wunderground v.1.15,2013-01-26 17:20:00,
2013-01-26 11:30:00,54.5,52.2,30.17,North,11,0.0,0.0,92,0.00,,,0.01,151,Wunderground v.1.15,2013-01-26 17:30:00,
2013-01-26 11:35:00,54.9,52.3,30.17,NW,310,0.0,0.0,91,0.00,,,0.01,135,Wunderground v.1.15,2013-01-26 17:35:00,
2013-01-26 11:40:00,55.0,52.1,30.16,NNW,332,0.0,1.0,90,0.00,,,0.01,139,Wunderground v.1.15,2013-01-26 17:40:00,
2013-01-26 11:50:00,54.8,51.9,30.16,NW,319,0.0,0.0,90,0.00,,,0.01,139,Wunderground v.1.15,2013-01-26 17:50:00,
2013-01-26 12:00:00,55.0,52.1,30.16,NNW,346,0.0,0.0,90,0.00,,,0.01,132,Wunderground v.1.15,2013-01-26 18:00:00,
2013-01-26 12:10:00,55.1,52.2,30.15,NW,306,0.0,0.0,90,0.00,,,0.01,183,Wunderground v.1.15,2013-01-26 18:10:00,
2013-01-26 12:15:00,55.2,52.6,30.15,NNW,344,0.0,0.0,91,0.00,,,0.01,206,Wunderground v.1.15,2013-01-26 18:15:00,
2013-01-26 12:20:00,55.5,52.6,30.15,North,355,0.0,0.0,90,0.00,,,0.01,158,Wunderground v.1.15,2013-01-26 18:20:00,
2013-01-26 12:25:00,55.6,52.7,30.15,North,350,0.0,0.0,90,0.00,,,0.01,216,Wunderground v.1.15,2013-01-26 18:25:00,
2013-01-26 12:35:00,56.1,52.9,30.14,North,360,0.0,0.0,89,0.00,,,0.01,172,Wunderground v.1.15,2013-01-26 18:35:00,
2013-01-26 12:40:00,56.2,53.0,30.14,WNW,296,0.0,0.0,89,0.00,,,0.01,167,Wunderground v.1.15,2013-01-26 18:40:00,
2013-01-26 12:50:00,56.5,53.3,30.13,NNW,346,0.0,0.0,89,0.00,,,0.01,179,Wunderground v.1.15,2013-01-26 18:50:00,
2013-01-26 12:55:00,56.6,53.4,30.13,NNE,13,0.0,0.0,89,0.00,,,0.01,171,Wunderground v.1.15,2013-01-26 18:55:00,
2013-01-26 13:05:00,56.8,53.6,30.13,NNE,26,0.0,1.0,89,0.00,,,0.01,178,Wunderground v.1.15,2013-01-26 19:05:00,
2013-01-26 13:10:00,57.1,53.9,30.12,NNE,26,0.0,0.0,89,0.00,,,0.01,234,Wunderground v.1.15,2013-01-26 19:10:00,
2013-01-26 13:15:00,57.4,54.2,30.12,NNE,24,0.0,0.0,89,0.00,,,0.01,218,Wunderground v.1.15,2013-01-26 19:15:00,
2013-01-26 13:20:00,57.5,54.0,30.12,NNE,23,0.0,0.0,88,0.00,,,0.01,206,Wunderground v.1.15,2013-01-26 19:20:00,
2013-01-26 13:25:00,57.5,54.0,30.12,NE,55,0.0,0.0,88,0.00,,,0.01,171,Wunderground v.1.15,2013-01-26 19:25:00,
2013-01-26 13:30:00,57.5,54.3,30.12,NNW,339,0.0,0.0,89,0.00,,,0.01,165,Wunderground v.1.15,2013-01-26 19:30:00,
2013-01-26 13:35:00,57.5,54.3,30.11,NNW,334,0.0,0.0,89,0.00,,,0.01,172,Wunderground v.1.15,2013-01-26 19:35:00,
2013-01-26 13:45:00,57.6,54.4,30.11,North,355,0.0,0.0,89,0.00,,,0.01,148,Wunderground v.1.15,2013-01-26 19:45:00,
2013-01-26 13:50:00,57.7,54.5,30.11,North,355,0.0,2.0,89,0.00,,,0.01,156,Wunderground v.1.15,2013-01-26 19:50:00,
2013-01-26 14:00:00,57.6,54.4,30.11,North,360,0.0,1.0,89,0.00,,,0.01,142,Wunderground v.1.15,2013-01-26 20:00:00,
2013-01-26 14:10:00,57.6,54.4,30.10,North,5,0.0,0.0,89,0.00,,,0.01,149,Wunderground v.1.15,2013-01-26 20:10:00,
2013-01-26 14:15:00,57.7,54.5,30.10,North,360,0.0,0.0,89,0.00,,,0.01,137,Wunderground v.1.15,2013-01-26 20:15:00,
2013-01-26 14:20:00,57.6,54.7,30.10,North,5,0.0,0.0,90,0.00,,,0.01,135,Wunderground v.1.15,2013-01-26 20:20:00,
2013-01-26 14:25:00,57.6,54.7,30.10,NNE,13,0.0,0.0,90,0.00,,,0.01,144,Wunderground v.1.15,2013-01-26 20:25:00,
2013-01-26 14:30:00,57.5,54.6,30.10,NW,318,0.0,0.0,90,0.00,,,0.01,113,Wunderground v.1.15,2013-01-26 20:30:00,
2013-01-26 14:35:00,57.5,54.6,30.10,NNW,346,0.0,0.0,90,0.00,,,0.01,137,Wunderground v.1.15,2013-01-26 20:35:00,
2013-01-26 14:40:00,57.5,54.6,30.10,NNW,348,0.0,0.0,90,0.00,,,0.01,125,Wunderground v.1.15,2013-01-26 20:40:00,
2013-01-26 14:45:00,57.7,54.8,30.10,NNE,33,0.0,0.0,90,0.00,,,0.01,139,Wunderground v.1.15,2013-01-26 20:45:00,
2013-01-26 14:55:00,57.9,55.0,30.10,North,9,0.0,0.0,90,0.00,,,0.01,123,Wunderground v.1.15,2013-01-26 20:55:00,
2013-01-26 15:00:00,57.9,55.0,30.09,NNE,19,0.0,0.0,90,0.00,,,0.01,165,Wunderground v.1.15,2013-01-26 21:00:00,
2013-01-26 15:05:00,58.0,55.1,30.09,NNE,18,0.0,0.0,90,0.00,,,0.01,162,Wunderground v.1.15,2013-01-26 21:05:00,
2013-01-26 15:15:00,58.5,55.3,30.09,North,5,0.0,1.0,89,0.00,,,0.01,213,Wunderground v.1.15,2013-01-26 21:15:00,
2013-01-26 15:20:00,58.7,55.5,30.09,North,355,0.0,1.0,89,0.00,,,0.01,218,Wunderground v.1.15,2013-01-26 21:20:00,
2013-01-26 15:25:00,59.1,55.5,30.08,North,5,0.0,1.0,88,0.00,,,0.01,352,Wunderground v.1.15,2013-01-26 21:25:00,
2013-01-26 15:30:00,59.4,55.8,30.08,North,9,0.0,3.0,88,0.00,,,0.01,232,Wunderground v.1.15,2013-01-26 21:30:00,
2013-01-26 15:35:00,59.5,55.9,30.08,North,355,1.0,3.0,88,0.00,,,0.01,253,Wunderground v.1.15,2013-01-26 21:35:00,
2013-01-26 15:40:00,59.6,56.0,30.08,NNW,344,1.0,1.0,88,0.00,,,0.01,241,Wunderground v.1.15,2013-01-26 21:40:00,
2013-01-26 15:45:00,60.1,56.5,30.08,NNW,344,0.0,1.0,88,0.00,,,0.01,221,Wunderground v.1.15,2013-01-26 21:45:00,
2013-01-26 15:55:00,60.8,56.9,30.07,North,355,0.0,0.0,87,0.00,,,0.01,216,Wunderground v.1.15,2013-01-26 21:55:00,
2013-01-26 16:00:00,61.1,56.9,30.07,North,355,0.0,1.0,86,0.00,,,0.01,260,Wunderground v.1.15,2013-01-26 22:00:00,
2013-01-26 16:05:00,61.3,57.1,30.07,North,10,0.0,1.0,86,0.00,,,0.01,199,Wunderground v.1.15,2013-01-26 22:05:00,
2013-01-26 16:10:00,61.3,57.1,30.07,North,355,0.0,0.0,86,0.00,,,0.01,155,Wunderground v.1.15,2013-01-26 22:10:00,
2013-01-26 16:20:00,60.6,56.7,30.07,NNE,12,0.0,0.0,87,0.00,,,0.01,56,Wunderground v.1.15,2013-01-26 22:20:00,
2013-01-26 16:30:00,60.9,57.0,30.07,NNE,12,0.0,0.0,87,0.00,,,0.01,186,Wunderground v.1.15,2013-01-26 22:30:00,
2013-01-26 16:35:00,61.3,57.4,30.07,NNE,12,0.0,1.0,87,0.00,,,0.01,130,Wunderground v.1.15,2013-01-26 22:35:00,
2013-01-26 16:40:00,61.3,57.1,30.07,NE,44,0.0,0.0,86,0.00,,,0.01,130,Wunderground v.1.15,2013-01-26 22:40:00,
2013-01-26 16:50:00,61.2,57.0,30.08,NE,42,0.0,0.0,86,0.00,,,0.01,104,Wunderground v.1.15,2013-01-26 22:50:00,
2013-01-26 16:55:00,61.0,56.8,30.07,North,5,0.0,0.0,86,0.00,,,0.01,98,Wunderground v.1.15,2013-01-26 22:55:00,
2013-01-26 17:00:00,60.9,56.7,30.08,North,5,0.0,0.0,86,0.00,,,0.01,79,Wunderground v.1.15,2013-01-26 23:00:00,
2013-01-26 17:10:00,60.7,56.8,30.08,NNE,22,0.0,0.0,87,0.00,,,0.01,63,Wunderground v.1.15,2013-01-26 23:10:00,
2013-01-26 17:15:00,60.6,56.7,30.08,NNE,22,0.0,0.0,87,0.00,,,0.01,62,Wunderground v.1.15,2013-01-26 23:15:00,
2013-01-26 17:20:00,60.5,56.6,30.08,NNE,22,0.0,0.0,87,0.00,,,0.01,84,Wunderground v.1.15,2013-01-26 23:20:00,
2013-01-26 17:30:00,60.4,56.8,30.07,NNE,22,0.0,0.0,88,0.00,,,0.01,47,Wunderground v.1.15,2013-01-26 23:30:00,
2013-01-26 17:40:00,60.1,56.5,30.08,NNE,22,0.0,0.0,88,0.00,,,0.01,39,Wunderground v.1.15,2013-01-26 23:40:00,
2013-01-26 17:45:00,60.0,56.4,30.08,NNE,22,0.0,0.0,88,0.00,,,0.01,26,Wunderground v.1.15,2013-01-26 23:45:00,
2013-01-26 17:50:00,59.8,56.2,30.08,NNE,22,0.0,0.0,88,0.00,,,0.01,18,Wunderground v.1.15,2013-01-26 23:50:00,
2013-01-26 17:55:00,59.5,55.9,30.08,NNE,22,0.0,0.0,88,0.00,,,0.01,11,Wunderground v.1.15,2013-01-26 23:55:00,
2013-01-26 18:00:00,59.2,56.0,30.08,NNE,22,0.0,0.0,89,0.00,,,0.01,5,Wunderground v.1.15,2013-01-27 00:00:00,
2013-01-26 18:10:00,58.6,55.4,30.07,NNE,22,0.0,0.0,89,0.00,,,0.01,0,Wunderground v.1.15,2013-01-27 00:10:00,
2013-01-26 18:15:00,58.4,55.5,30.08,NNE,22,0.0,0.0,90,0.00,,,0.01,0,Wunderground v.1.15,2013-01-27 00:15:00,
2013-01-26 18:25:00,58.0,55.1,30.08,NNE,22,0.0,0.0,90,0.00,,,0.01,0,Wunderground v.1.15,2013-01-27 00:25:00,
2013-01-26 18:30:00,57.8,54.9,30.08,NNE,22,0.0,0.0,90,0.00,,,0.01,0,Wunderground v.1.15,2013-01-27 00:30:00,
2013-01-26 18:40:00,57.4,54.8,30.08,NNE,22,0.0,0.0,91,0.00,,,0.01,0,Wunderground v.1.15,2013-01-27 00:40:00,
2013-01-26 18:45:00,57.2,54.6,30.08,NNE,22,0.0,0.0,91,0.00,,,0.01,0,Wunderground v.1.15,2013-01-27 00:45:00,
2013-01-26 18:55:00,56.8,54.2,30.08,NNE,22,0.0,0.0,91,0.00,,,0.01,0,Wunderground v.1.15,2013-01-27 00:55:00,
2013-01-26 19:00:00,56.5,54.2,30.08,NNE,22,0.0,0.0,92,0.00,,,0.01,0,Wunderground v.1.15,2013-01-27 01:00:00,
2013-01-26 19:05:00,56.3,54.0,30.08,NNE,22,0.0,1.0,92,0.00,,,0.01,0,Wunderground v.1.15,2013-01-27 01:05:00,
2013-01-26 19:15:00,56.1,54.1,30.08,NNE,22,0.0,0.0,93,0.00,,,0.01,0,Wunderground v.1.15,2013-01-27 01:15:00,
2013-01-26 19:25:00,55.9,53.9,30.09,NNE,22,0.0,0.0,93,0.00,,,0.01,0,Wunderground v.1.15,2013-01-27 01:25:00,
2013-01-26 19:30:00,55.8,53.8,30.09,NNE,22,0.0,0.0,93,0.00,,,0.01,0,Wunderground v.1.15,2013-01-27 01:30:00,
2013-01-26 19:40:00,55.5,53.8,30.09,NNE,22,0.0,0.0,94,0.00,,,0.01,0,Wunderground v.1.15,2013-01-27 01:40:00,
2013-01-26 19:45:00,55.4,53.7,30.09,NNE,22,0.0,0.0,94,0.00,,,0.01,0,Wunderground v.1.15,2013-01-27 01:45:00,
2013-01-26 19:50:00,55.4,53.7,30.09,NNE,20,0.0,0.0,94,0.00,,,0.01,0,Wunderground v.1.15,2013-01-27 01:50:00,
2013-01-26 19:55:00,55.5,53.8,30.10,NNE,17,0.0,1.0,94,0.00,,,0.01,0,Wunderground v.1.15,2013-01-27 01:55:00,
2013-01-26 20:00:00,55.6,53.9,30.10,NNE,17,0.0,0.0,94,0.00,,,0.01,0,Wunderground v.1.15,2013-01-27 02:00:00,
2013-01-26 20:05:00,55.5,53.8,30.10,NNE,17,0.0,0.0,94,0.00,,,0.01,0,Wunderground v.1.15,2013-01-27 02:05:00,
2013-01-26 20:15:00,55.3,53.6,30.10,NNE,17,0.0,0.0,94,0.00,,,0.01,0,Wunderground v.1.15,2013-01-27 02:15:00,
2013-01-26 20:20:00,55.2,53.5,30.10,NNE,17,0.0,0.0,94,0.00,,,0.01,0,Wunderground v.1.15,2013-01-27 02:20:00,
2013-01-26 20:30:00,55.1,53.7,30.10,NNE,17,0.0,0.0,95,0.00,,,0.01,0,Wunderground v.1.15,2013-01-27 02:30:00,
2013-01-26 20:40:00,54.9,53.5,30.10,NNE,17,0.0,0.0,95,0.00,,,0.01,0,Wunderground v.1.15,2013-01-27 02:40:00,
2013-01-26 20:50:00,54.7,53.3,30.10,North,5,0.0,0.0,95,0.00,,,0.01,0,Wunderground v.1.15,2013-01-27 02:50:00,
2013-01-26 20:55:00,54.6,53.2,30.10,North,5,0.0,0.0,95,0.00,,,0.01,0,Wunderground v.1.15,2013-01-27 02:55:00,
2013-01-26 21:00:00,54.5,53.1,30.10,North,5,0.0,0.0,95,0.00,,,0.01,0,Wunderground v.1.15,2013-01-27 03:00:00,
2013-01-26 21:05:00,54.4,53.0,30.10,North,5,0.0,0.0,95,0.00,,,0.01,0,Wunderground v.1.15,2013-01-27 03:05:00,
2013-01-26 21:10:00,54.3,52.9,30.11,North,5,0.0,0.0,95,0.00,,,0.01,0,Wunderground v.1.15,2013-01-27 03:10:00,
2013-01-26 21:20:00,54.0,52.6,30.11,North,5,0.0,0.0,95,0.00,,,0.01,0,Wunderground v.1.15,2013-01-27 03:20:00,
2013-01-26 21:25:00,53.9,52.5,30.11,North,5,0.0,0.0,95,0.00,,,0.01,0,Wunderground v.1.15,2013-01-27 03:25:00,
2013-01-26 21:30:00,53.8,52.4,30.11,North,5,0.0,0.0,95,0.00,,,0.01,0,Wunderground v.1.15,2013-01-27 03:30:00,
2013-01-26 21:35:00,53.7,52.3,30.11,North,5,0.0,0.0,95,0.00,,,0.01,0,Wunderground v.1.15,2013-01-27 03:35:00,
2013-01-26 21:40:00,53.6,52.2,30.11,North,5,0.0,0.0,95,0.00,,,0.01,0,Wunderground v.1.15,2013-01-27 03:40:00,
2013-01-26 21:50:00,53.4,52.0,30.11,North,5,0.0,0.0,95,0.00,,,0.01,0,Wunderground v.1.15,2013-01-27 03:50:00,
2013-01-26 22:00:00,53.2,51.8,30.11,North,5,0.0,0.0,95,0.00,,,0.01,0,Wunderground v.1.15,2013-01-27 04:00:00,
2013-01-26 22:05:00,52.9,51.5,30.11,North,5,0.0,0.0,95,0.00,,,0.01,0,Wunderground v.1.15,2013-01-27 04:05:00,
2013-01-26 22:10:00,52.6,51.2,30.11,North,5,0.0,0.0,95,0.00,,,0.01,0,Wunderground v.1.15,2013-01-27 04:10:00,
2013-01-26 22:15:00,52.3,50.9,30.11,North,5,0.0,0.0,95,0.00,,,0.01,0,Wunderground v.1.15,2013-01-27 04:15:00,
2013-01-26 22:25:00,52.0,50.6,30.11,North,5,0.0,0.0,95,0.00,,,0.01,0,Wunderground v.1.15,2013-01-27 04:25:00,
2013-01-26 22:30:00,51.9,50.5,30.11,North,5,0.0,0.0,95,0.00,,,0.01,0,Wunderground v.1.15,2013-01-27 04:30:00,
2013-01-26 22:35:00,51.8,50.4,30.11,North,5,0.0,0.0,95,0.00,,,0.01,0,Wunderground v.1.15,2013-01-27 04:35:00,
2013-01-26 22:40:00,51.6,50.2,30.11,North,5,0.0,0.0,95,0.00,,,0.01,0,Wunderground v.1.15,2013-01-27 04:40:00,
2013-01-26 22:45:00,51.4,50.0,30.11,North,5,0.0,0.0,95,0.00,,,0.01,0,Wunderground v.1.15,2013-01-27 04:45:00,
2013-01-26 22:50:00,51.3,49.9,30.11,North,5,0.0,0.0,95,0.00,,,0.01,0,Wunderground v.1.15,2013-01-27 04:50:00,
2013-01-26 23:00:00,51.0,49.6,30.11,North,5,0.0,0.0,95,0.00,,,0.01,0,Wunderground v.1.15,2013-01-27 05:00:00,
2013-01-26 23:05:00,51.0,49.9,30.11,North,5,0.0,0.0,96,0.00,,,0.01,0,Wunderground v.1.15,2013-01-27 05:05:00,
2013-01-26 23:10:00,50.9,49.8,30.11,North,5,0.0,0.0,96,0.00,,,0.01,0,Wunderground v.1.15,2013-01-27 05:10:00,
2013-01-26 23:15:00,50.8,49.7,30.11,North,5,0.0,0.0,96,0.00,,,0.01,0,Wunderground v.1.15,2013-01-27 05:15:00,
2013-01-26 23:20:00,50.8,49.7,30.11,North,5,0.0,0.0,96,0.00,,,0.01,0,Wunderground v.1.15,2013-01-27 05:20:00,
2013-01-26 23:25:00,50.9,49.8,30.11,North,5,0.0,0.0,96,0.00,,,0.01,0,Wunderground v.1.15,2013-01-27 05:25:00,
2013-01-26 23:30:00,51.0,49.9,30.11,North,5,0.0,0.0,96,0.00,,,0.01,0,Wunderground v.1.15,2013-01-27 05:30:00,
2013-01-26 23:35:00,51.3,50.5,30.11,North,5,0.0,0.0,97,0.00,,,0.01,0,Wunderground v.1.15,2013-01-27 05:35:00,
2013-01-26 23:40:00,51.4,50.6,30.11,North,5,0.0,0.0,97,0.00,,,0.01,0,Wunderground v.1.15,2013-01-27 05:40:00,
2013-01-26 23:45:00,51.4,50.6,30.11,North,5,0.0,0.0,97,0.00,,,0.01,0,Wunderground v.1.15,2013-01-27 05:45:00,
2013-01-26 23:50:00,51.5,50.4,30.11,North,5,0.0,0.0,96,0.00,,,0.01,0,Wunderground v.1.15,2013-01-27 05:50:00,